Regional Weather Roundup
Issued by NWS Cleveland, OH

Home | Current Version | Previous Version | Text Only | Print | Product List | Glossary On
Versions: 1 2 3 4 5 6 7 8 9 10 11 12 13 14 15 16 17 18 19 20 21 22 23 24 25 26 27 28 29 30 31 32 33 34 35 36 37 38 39 40 41 42 43 44 45 46 47 48 49 50
000
ASUS41 KCLE 221712
RWRCLE
OHIO REGIONAL WEATHER ROUNDUP
NATIONAL WEATHER SERVICE WILMINGTON, OH
100 PM EDT TUE AUG 22 2017

NOTE: "FAIR" INDICATES FEW OR NO CLOUDS BELOW 12,000 FEET WITH NO
SIGNIFICANT WEATHER AND/OR OBSTRUCTIONS TO VISIBILITY.

OHZ001>008-015>018-024>027-034-035-043-044-221800-
   NORTHWEST OHIO

CITY           SKY/WX    TMP DP  RH WIND       PRES   REMARKS
DEFIANCE       FAIR      74  66  76 SW13      29.87S
FINDLAY        LGT RAIN  74  67  78 SW12      29.87F
TOLEDO EXPRESS CLOUDY    74  68  81 SW16      29.84F
TOLEDO EXEC    PTSUNNY   75  69  81 SW20G25   29.84F
LIMA           LGT RAIN  73  69  87 SW15      29.90F
$$

OHZ009>014-019>023-028>033-038-089-221800-
   NORTHEAST OHIO

CITY           SKY/WX    TMP DP  RH WIND       PRES   REMARKS
CLE-HOPKINS    CLOUDY    85  69  58 W22G31    29.84F
CLE-LAKEFRONT  PTSUNNY   82  68  62 SW20G28   29.80F
CUY CO. ARPT   CLOUDY    84  72  65 W18G24    29.83F
LORAIN-ELYRIA  HVY RAIN  75  66  73 W13G20    29.86S
ASHTABULA      FAIR      82  73  74 SW17      29.82F
AKRON-CANTON   CLOUDY    84  69  60 SW23      29.87F THUNDER
WOOSTER        FAIR      82  72  71 W17G23    29.88F
MANSFIELD      PTSUNNY   81  71  71 SW18G26   29.89F
YOUNGSTOWN     CLOUDY    78  72  81 SW10      29.86F THUNDER
$$

OHZ042-051>053-060>062-070>072-077>081-221800-
  SOUTHWEST OHIO

CITY           SKY/WX    TMP DP  RH WIND       PRES   REMARKS
CINC-COVINGTON PTSUNNY   78  75  90 S12       29.95F
CINC-LUNKEN    LGT RAIN  79  74  84 W14G25    29.94F
HAMILTON       FAIR      81  75  82 W8        29.94F
DAYTON         RAIN      74  68  81 W16G31    29.96R
WRIGHT-PAT AFB CLOUDY    79  73  82 W10       29.93S
DAYTON GENERAL FAIR      82  67  60 W13       29.94S
WILMINGTON     PTSUNNY   82  74  76 W14       29.93F
$$

OHZ036-037-039>041-045>050-054>059-063>069-073>076-082>088-221800-
  CENTRAL AND SOUTHEAST OHIO

CITY           SKY/WX    TMP DP  RH WIND       PRES   REMARKS
COLUMBUS       TSTM      71  69  93 W18G53    29.91F FOG
OSU AIRPORT    CLOUDY    73  72  96 SW8       29.91F
BOLTON FIELD   CLOUDY    72  70  94 W7G22     29.92F
RICKENBACK AFB PTSUNNY   84  74  71 SW14G21   29.90F HX  91
NEWARK         PTSUNNY   83  73  72 SW15      29.90F
MARION         FAIR      79  68  69 SW15G22   29.90F
LANCASTER      PTSUNNY   84  73  69 SW7G23    29.92F HX  90
ZANESVILLE     PTSUNNY   85  72  65 SW13G23   29.91F HX  91
NEW PHILLY     PTSUNNY   83  73  72 SW9G18    29.89F
$$



USA.gov is the U.S. government's official web portal to all federal, state and local government web resources and services.